Wind_Speed
21 19 17 17 21 24 24 13 16 9 10 22 21 38 43 46 44 42 39 36 35 33 31 31 30 28 25 23 21 19 17 14 12 11 10 9 8 8
21 20 20 19 18 19 21 18 22 14 10 28 32 40 42 43 48 44 40 38 37 35 33 34 32 29 26 23 22 20 17 14 13 12 10 9 8 8
22 20 21 20 21 23 25 21 16 24 11 24 31 42 37 39 48 45 42 40 37 36 36 35 34 31 27 24 24 21 17 15 13 12 11 9 7 7
23 22 22 20 20 21 21 26 27 15 21 25 27 39 40 41 51 44 44 41 40 40 38 37 37 34 30 26 25 22 17 17 15 14 11 9 8 6
24 23 23 22 24 23 18 23 22 21 34 37 25 38 43 44 41 40 45 44 41 41 38 37 39 36 31 28 25 25 19 18 17 16 12 9 7 7
27 27 27 25 23 22 21 23 22 28 26 38 33 37 41 41 43 38 34 39 43 42 41 38 40 38 33 30 25 23 21 19 18 15 12 10 8 7
29 28 29 29 28 26 21 23 22 24 20 35 32 35 34 38 41 33 36 35 37 46 40 40 43 44 39 35 31 24 20 19 19 17 15 12 10 8
28 28 29 29 31 31 32 29 21 25 23 24 30 37 40 45 44 40 37 34 20 35 40 35 43 42 44 40 35 31 24 19 19 18 16 14 12 10
32 29 29 29 30 31 31 32 35 34 33 26 27 41 40 48 48 43 39 41 36 38 41 30 42 41 45 44 39 34 30 24 19 19 18 16 14 13
33 32 32 30 31 29 28 29 29 32 39 42 33 33 48 53 58 59 50 45 35 34 42 24 34 30 41 45 42 37 33 29 24 22 19 18 16 15
35 35 36 33 33 33 31 28 28 32 36 38 41 38 48 58 57 44 38 39 22 28 44 32 29 24 36 40 44 41 36 34 28 26 23 20 19 17
35 37 40 40 35 35 35 32 29 33 29 33 37 45 51 56 57 58 52 42 34 11 36 32 30 29 11 30 42 42 40 37 33 30 27 22 20 20
35 35 38 43 45 41 38 36 38 27 28 32 37 35 46 50 53 50 50 53 45 26 40 45 31 34 20 11 32 42 45 42 38 32 29 26 23 22
35 36 37 38 41 43 43 42 33 32 30 31 30 34 41 47 50 49 49 48 49 46 41 54 33 40 36 15 13 35 40 42 42 39 36 31 28 25
36 38 36 36 38 40 43 41 38 29 33 27 29 32 47 50 49 47 43 44 40 38 30 50 42 41 37 27 21 23 28 34 41 41 40 38 35 32
39 39 39 37 35 36 34 38 38 39 29 36 34 31 44 45 46 48 39 41 35 36 29 39 47 38 33 35 34 30 30 22 40 40 41 39 37 37
32 30 33 31 31 29 32 35 37 37 38 32 41 34 42 44 45 46 44 39 34 32 33 40 40 36 35 40 27 34 35 31 27 36 37 38 39 40
34 26 25 31 30 29 33 33 35 37 39 33 42 35 42 44 42 42 43 42 35 33 32 40 40 31 23 22 31 36 33 30 31 36 34 31 31 39
32 27 25 28 31 31 31 35 34 36 37 45 39 37 43 44 44 43 40 39 33 33 33 38 39 33 9 9 18 30 34 35 33 34 36 33 27 40
30 27 30 31 27 30 33 30 35 34 38 42 38 40 42 42 42 41 41 38 35 31 30 35 37 37 31 17 13 27 35 37 37 31 28 29 23 25
30 31 28 31 32 34 34 30 34 35 38 39 36 39 40 44 41 42 41 41 40 33 31 36 45 38 28 21 16 15 32 30 34 39 34 27 23 23
27 27 30 32 33 34 33 31 30 34 33 33 35 38 40 43 40 40 41 39 40 37 36 30 34 39 35 24 16 20 26 29 27 32 31 35 23 19
27 28 29 26 32 35 26 24 32 30 38 30 30 35 37 36 39 41 40 40 39 34 32 31 35 35 26 25 22 25 24 30 33 31 28 24 21 13
Wind_Direction
263 265 267 270 267 260 263 283 206 171 166 170 162 180 183 185 187 185 186 188 189 188 186 183 182 183 179 174 171 167 164 163 154 146 136 126 115 101
260 260 260 260 263 265 269 268 238 230 163 166 175 174 182 183 186 186 190 188 191 191 189 186 184 188 186 182 180 178 173 169 163 153 146 138 126 109
252 252 255 260 261 262 256 258 288 212 194 162 167 175 175 176 180 188 191 190 193 195 193 191 187 192 191 190 192 194 183 177 171 165 159 150 137 124
249 247 251 255 257 263 263 260 260 244 197 166 167 167 174 179 179 180 186 192 200 197 197 195 192 194 195 196 200 206 197 189 182 177 174 167 157 145
248 246 248 246 252 254 252 248 255 277 208 173 168 174 174 178 175 180 186 190 201 199 200 201 198 200 205 206 207 210 207 199 197 197 193 191 190 170
245 244 245 246 246 249 249 251 255 250 211 179 172 171 173 175 177 177 176 183 190 202 201 203 203 204 209 206 203 207 209 212 207 207 209 205 206 203
244 242 244 246 247 247 250 248 239 251 267 181 174 169 173 169 180 181 176 179 187 195 195 200 201 200 207 209 206 211 215 212 212 213 213 212 212 212
244 242 243 244 248 248 246 248 255 240 267 194 177 180 182 177 176 177 177 174 177 192 189 195 200 197 204 209 210 208 202 218 217 217 217 217 214 220
243 240 240 241 244 245 248 247 241 243 250 251 200 193 182 179 173 178 182 183 186 189 188 189 196 200 206 212 211 210 207 205 225 225 222 221 220 223
245 243 239 236 237 239 242 249 253 249 244 245 252 231 189 184 181 181 181 186 188 186 183 183 193 198 203 214 214 212 214 211 214 223 229 227 226 224
246 240 239 237 233 237 236 241 245 249 247 248 249 261 197 187 183 178 179 176 169 175 186 190 190 188 199 206 215 215 217 218 217 220 227 237 230 227
237 240 242 239 235 234 234 237 241 248 241 241 250 255 201 189 182 181 180 179 174 166 192 191 181 185 174 208 213 213 216 220 221 218 220 225 229 221
227 231 233 235 237 232 231 233 234 240 245 238 245 218 189 185 184 184 184 184 183 189 189 186 180 183 189 174 198 214 214 214 217 216 218 221 221 224
226 228 229 230 232 233 233 235 236 233 243 236 244 221 181 182 185 184 187 190 195 198 193 188 188 185 192 165 170 201 208 215 216 215 211 214 221 224
223 226 228 229 232 231 232 232 234 239 232 236 234 209 186 183 183 182 187 187 193 196 194 188 198 190 190 192 173 181 185 205 211 212 212 211 207 211
233 224 225 228 228 229 229 231 230 229 237 226 229 246 184 178 179 178 174 178 177 182 189 195 202 201 189 198 195 174 192 185 200 207 213 213 212 216
227 230 211 219 224 227 226 228 222 220 230 227 224 242 182 176 178 177 175 172 176 172 173 186 202 203 197 201 188 192 188 196 200 196 199 203 209 216
222 213 217 208 213 220 218 220 217 214 217 223 220 239 181 176 174 170 172 177 175 175 173 177 185 176 179 195 207 192 191 192 195 196 195 193 198 208
221 218 213 219 210 216 233 212 215 214 213 215 218 229 182 175 167 168 172 175 175 173 177 174 175 178 176 191 194 206 186 195 190 192 198 200 201 205
216 220 214 213 210 216 219 220 210 208 211 209 221 203 179 169 169 170 175 174 170 169 169 175 180 186 190 186 165 190 201 203 192 185 186 195 209 220
217 213 214 214 213 221 224 232 199 201 206 201 210 181 174 169 171 173 175 175 169 173 176 181 193 191 185 180 165 168 193 205 214 191 185 182 173 185
209 211 213 212 213 217 225 228 192 196 195 195 191 176 173 171 171 173 175 171 172 177 187 180 175 180 178 183 166 157 174 187 197 201 210 197 183 186
206 205 218 203 210 215 215 228 188 185 191 185 178 173 172 172 174 175 177 174 173 172 166 157 166 176 179 180 162 158 169 171 177 179 192 199 205 210
Height
768 768 768 768 767 769 772 767 769 766 773 782 792 802 808 813 822 832 838 846 853 859 866 870 875 880 885 889 892 895 896 898 899 901 902 903 904 904
762 763 764 764 765 766 766 767 764 765 763 773 783 792 803 809 816 826 834 843 850 856 862 867 872 879 883 888 891 893 895 897 899 900 902 902 903 904
757 759 759 761 761 763 763 762 763 764 763 768 776 785 798 805 815 821 830 839 847 853 858 863 869 875 881 886 889 891 894 896 899 900 901 902 903 904
750 752 753 756 755 757 756 754 760 758 759 762 773 778 788 800 808 815 825 835 842 849 854 859 866 870 878 883 886 889 891 894 896 899 899 900 902 903
743 744 747 749 750 752 752 756 755 752 751 755 765 775 780 792 805 813 819 829 838 845 852 857 862 867 871 876 881 886 889 892 894 896 897 899 901 901
739 739 740 742 745 745 747 747 751 749 743 750 758 766 774 784 796 804 813 821 830 840 846 852 857 863 868 872 875 881 885 888 891 893 896 898 899 900
730 731 731 733 737 739 742 743 743 744 741 738 750 757 767 775 785 798 805 815 825 831 840 846 851 857 862 867 871 876 880 884 887 890 893 895 897 898
721 721 724 726 727 731 734 737 737 741 741 734 737 742 751 759 773 787 798 808 819 825 831 839 843 849 855 859 865 871 876 879 883 886 890 892 894 896
710 713 717 718 720 722 724 729 733 731 734 734 734 733 742 749 758 776 786 793 802 810 821 831 837 842 846 852 858 865 871 874 879 883 886 889 890 892
699 702 706 710 713 715 717 715 712 718 723 726 729 734 730 741 743 751 768 786 799 804 813 822 829 833 839 845 853 859 865 869 873 877 882 885 886 888
689 694 697 701 704 710 711 711 709 709 712 715 723 725 726 733 737 755 768 777 788 797 803 810 819 828 833 838 845 852 858 862 867 871 874 880 883 884
685 685 686 690 696 701 700 703 700 694 706 712 719 717 719 725 731 736 750 763 777 791 794 803 811 818 829 831 836 845 851 855 859 864 868 872 877 880
674 674 676 680 686 689 691 692 689 695 700 704 709 704 707 716 722 732 740 749 758 766 772 787 798 807 816 821 826 835 840 846 851 857 862 866 869 873
657 661 665 671 674 677 680 681 684 691 694 695 694 693 691 704 713 722 731 741 748 753 759 772 782 792 801 810 816 825 831 837 842 846 853 860 864 867
642 647 653 659 663 665 667 672 679 682 685 685 685 680 681 690 704 714 726 736 744 752 759 769 776 782 790 794 804 812 824 828 832 837 843 849 854 859
630 635 642 646 650 651 656 660 665 669 671 672 675 676 675 684 692 702 714 725 736 746 755 763 772 777 783 790 794 804 812 819 824 829 835 842 846 849
621 624 626 633 636 640 643 647 651 657 662 660 665 667 661 669 681 692 703 715 726 736 746 756 768 773 777 782 791 795 802 811 815 821 828 833 838 841
609 608 613 618 624 628 629 633 637 641 646 649 654 657 649 657 669 681 692 704 716 726 734 743 756 767 774 781 785 786 795 803 809 815 821 827 830 834
594 598 600 606 609 612 619 618 622 626 631 640 643 646 640 648 657 669 682 695 706 716 727 736 745 754 765 770 776 778 784 795 801 808 814 819 821 825
583 586 590 594 598 600 606 606 608 614 621 624 633 632 630 636 648 659 673 684 695 709 720 729 735 742 745 750 763 771 777 784 792 799 808 814 818 825
570 575 579 584 586 590 593 593 594 600 606 611 619 617 622 628 638 651 663 674 684 699 711 715 721 735 743 752 761 767 773 781 786 790 799 809 814 818
559 563 568 572 575 579 583 582 580 589 593 602 608 608 615 621 630 642 654 664 671 687 701 711 717 727 734 743 749 757 769 778 784 788 795 798 802 808
549 553 559 559 564 568 569 570 571 579 589 596 598 601 609 615 624 635 646 655 665 680 692 703 711 721 730 737 742 753 763 771 776 783 789 796 799 802